DAL1694 KMSP-KFSD

Flight info

Callsign DAL1694
Flight time 0h 37m
Altitude 26000
Route SCHEP1 RXANN FSD
Aircraft A319/M-SDE3FGHIRWY/LB1

Departure

Time 2026-04-11 03:59
Airport Minneapolis–Saint Paul International Airport / Wold–Chamberlain Field (KMSP)

Arrival

Time 2026-04-11 04:36
Airport Sioux Falls Regional Airport (KFSD)
Time Latitude Longitude Altitude Speed Heading
2026-04-11 03:41 44.88345 -93.20568 825 ft 0 kts 227°
2026-04-11 03:52 44.88350 -93.20561 823 ft 2 kts 227°
2026-04-11 03:52 44.88353 -93.20557 825 ft 0 kts 224°
2026-04-11 03:52 44.88355 -93.20554 825 ft 1 kts 223°
2026-04-11 03:52 44.88361 -93.20545 822 ft 1 kts 216°
2026-04-11 03:53 44.88368 -93.20538 823 ft 1 kts 210°
2026-04-11 03:53 44.88376 -93.20532 822 ft 1 kts 202°
2026-04-11 03:53 44.88384 -93.20528 825 ft 1 kts 196°
2026-04-11 03:53 44.88392 -93.20524 822 ft 1 kts 189°
2026-04-11 03:54 44.88400 -93.20522 822 ft 1 kts 182°
2026-04-11 03:54 44.88409 -93.20521 825 ft 1 kts 152°
2026-04-11 03:54 44.88412 -93.20521 823 ft 0 kts 127°
2026-04-11 03:55 44.88411 -93.20519 823 ft 1 kts 122°
2026-04-11 03:55 44.88425 -93.20504 825 ft 8 kts 35°
2026-04-11 03:56 44.88436 -93.20409 825 ft 14 kts 121°
2026-04-11 03:56 44.88383 -93.20290 825 ft 15 kts 122°
2026-04-11 03:56 44.88322 -93.20149 825 ft 18 kts 121°
2026-04-11 03:56 44.88253 -93.19990 824 ft 19 kts 121°
2026-04-11 03:57 44.88181 -93.19823 825 ft 21 kts 121°
2026-04-11 03:57 44.88105 -93.19648 825 ft 21 kts 121°
2026-04-11 03:57 44.88061 -93.19484 825 ft 14 kts 73°
2026-04-11 03:57 44.88144 -93.19451 825 ft 14 kts 331°
2026-04-11 03:58 44.88197 -93.19558 823 ft 14 kts 301°
2026-04-11 03:58 44.88267 -93.19721 826 ft 42 kts 301°
2026-04-11 03:58 44.88567 -93.20416 821 ft 120 kts 301°
2026-04-11 03:58 44.89095 -93.21644 1027 ft 156 kts 301°
2026-04-11 03:59 44.89643 -93.22951 1781 ft 155 kts 288°
2026-04-11 03:59 44.89735 -93.24453 2542 ft 155 kts 267°
2026-04-11 03:59 44.89971 -93.25991 3051 ft 173 kts 294°
2026-04-11 03:59 44.90478 -93.27654 3436 ft 198 kts 280°
2026-04-11 04:00 44.90592 -93.29711 3923 ft 223 kts 271°
2026-04-11 04:00 44.90604 -93.32019 4521 ft 246 kts 270°
2026-04-11 04:00 44.90598 -93.34483 5458 ft 255 kts 270°
2026-04-11 04:00 44.90574 -93.37009 6435 ft 262 kts 270°
2026-04-11 04:01 44.90528 -93.39606 6845 ft 266 kts 270°
2026-04-11 04:01 44.90470 -93.42219 6961 ft 266 kts 270°
2026-04-11 04:01 44.90412 -93.44831 6990 ft 266 kts 270°
2026-04-11 04:01 44.90354 -93.47436 6992 ft 266 kts 270°
2026-04-11 04:02 44.90298 -93.50040 6993 ft 266 kts 270°
2026-04-11 04:02 44.90241 -93.52646 6994 ft 266 kts 270°
2026-04-11 04:02 44.90021 -93.55261 7650 ft 272 kts 255°
2026-04-11 04:02 44.89115 -93.57613 8747 ft 278 kts 232°
2026-04-11 04:03 44.87554 -93.59213 9775 ft 290 kts 206°
2026-04-11 04:03 44.85518 -93.59817 10440 ft 312 kts 191°
2026-04-11 04:03 44.83271 -93.60141 10823 ft 335 kts 189°
2026-04-11 04:03 44.80907 -93.60405 11537 ft 344 kts 188°
2026-04-11 04:04 44.78504 -93.60646 12365 ft 348 kts 189°
2026-04-11 04:04 44.76073 -93.60894 13195 ft 352 kts 189°
2026-04-11 04:04 44.73628 -93.61278 14010 ft 352 kts 197°
2026-04-11 04:04 44.71323 -93.62363 14742 ft 348 kts 211°
2026-04-11 04:05 44.69284 -93.64146 15481 ft 344 kts 224°
2026-04-11 04:05 44.67594 -93.66486 16223 ft 340 kts 236°
2026-04-11 04:05 44.66188 -93.69158 16979 ft 341 kts 238°
2026-04-11 04:05 44.64786 -93.71863 17773 ft 344 kts 238°
2026-04-11 04:06 44.63369 -93.74593 18577 ft 348 kts 238°
2026-04-11 04:06 44.61935 -93.77352 19271 ft 351 kts 238°
2026-04-11 04:06 44.60488 -93.80132 19960 ft 355 kts 238°
2026-04-11 04:06 44.59025 -93.82937 20625 ft 358 kts 238°
2026-04-11 04:07 44.57565 -93.85733 21235 ft 361 kts 238°
2026-04-11 04:07 44.56072 -93.88594 21845 ft 365 kts 239°
2026-04-11 04:07 44.54566 -93.91479 22434 ft 369 kts 239°
2026-04-11 04:07 44.53042 -93.94392 23036 ft 372 kts 239°
2026-04-11 04:08 44.51500 -93.97321 23620 ft 376 kts 239°
2026-04-11 04:08 44.49940 -94.00283 24150 ft 379 kts 239°
2026-04-11 04:08 44.48374 -94.03266 24637 ft 381 kts 239°
2026-04-11 04:08 44.46798 -94.06270 25126 ft 384 kts 239°
2026-04-11 04:09 44.45211 -94.09289 25604 ft 386 kts 239°
2026-04-11 04:09 44.43612 -94.12318 26084 ft 388 kts 239°
2026-04-11 04:09 44.42008 -94.15357 26337 ft 389 kts 239°
2026-04-11 04:09 44.40409 -94.18378 26392 ft 381 kts 239°
2026-04-11 04:10 44.38840 -94.21332 26389 ft 377 kts 239°
2026-04-11 04:10 44.37284 -94.24263 26392 ft 375 kts 239°
2026-04-11 04:10 44.35732 -94.27189 26388 ft 374 kts 239°
2026-04-11 04:10 44.34185 -94.30105 26387 ft 374 kts 239°
2026-04-11 04:11 44.32636 -94.33027 26384 ft 374 kts 239°
2026-04-11 04:11 44.31084 -94.35954 26386 ft 375 kts 239°
2026-04-11 04:11 44.29532 -94.38877 26399 ft 375 kts 239°
2026-04-11 04:11 44.27972 -94.41802 26397 ft 375 kts 239°
2026-04-11 04:12 44.26437 -94.44675 26389 ft 375 kts 239°
2026-04-11 04:12 44.24880 -94.47588 26386 ft 375 kts 239°
2026-04-11 04:12 44.23322 -94.50502 26383 ft 374 kts 239°
2026-04-11 04:12 44.21768 -94.53411 26380 ft 374 kts 239°
2026-04-11 04:13 44.20211 -94.56322 26377 ft 374 kts 239°
2026-04-11 04:13 44.18655 -94.59227 26361 ft 374 kts 239°
2026-04-11 04:13 44.17098 -94.62138 26361 ft 374 kts 239°
2026-04-11 04:13 44.15542 -94.65044 26361 ft 374 kts 239°
2026-04-11 04:14 44.13987 -94.67942 26362 ft 374 kts 239°
2026-04-11 04:14 44.12424 -94.70847 26359 ft 374 kts 239°
2026-04-11 04:14 44.10862 -94.73746 26361 ft 375 kts 239°
2026-04-11 04:14 44.09293 -94.76652 26365 ft 375 kts 239°
2026-04-11 04:15 44.06157 -94.82466 26371 ft 376 kts 239°
2026-04-11 04:15 44.04584 -94.85371 26377 ft 376 kts 239°
2026-04-11 04:15 44.03035 -94.88230 26370 ft 376 kts 239°
2026-04-11 04:16 44.01463 -94.91136 26371 ft 375 kts 239°
2026-04-11 04:16 44.00113 -94.94204 26372 ft 369 kts 249°
2026-04-11 04:16 43.99205 -94.97505 26363 ft 364 kts 258°
2026-04-11 04:16 43.98592 -95.00908 26365 ft 363 kts 259°
2026-04-11 04:17 43.97980 -95.04319 26367 ft 364 kts 259°
2026-04-11 04:17 43.97362 -95.07726 26371 ft 364 kts 259°
2026-04-11 04:17 43.96741 -95.11134 26372 ft 364 kts 259°
2026-04-11 04:17 43.96119 -95.14537 26371 ft 364 kts 259°
2026-04-11 04:18 43.95495 -95.17949 26374 ft 364 kts 259°
2026-04-11 04:18 43.94871 -95.21358 26378 ft 364 kts 259°
2026-04-11 04:18 43.94248 -95.24761 26380 ft 364 kts 259°
2026-04-11 04:18 43.93622 -95.28167 26381 ft 364 kts 259°
2026-04-11 04:19 43.92993 -95.31572 26377 ft 364 kts 259°
2026-04-11 04:19 43.92362 -95.34977 26362 ft 364 kts 259°
2026-04-11 04:19 43.91740 -95.38331 26362 ft 364 kts 259°
2026-04-11 04:19 43.91106 -95.41737 26362 ft 365 kts 259°
2026-04-11 04:20 43.90472 -95.45146 26171 ft 365 kts 259°
2026-04-11 04:20 43.89844 -95.48547 25923 ft 363 kts 259°
2026-04-11 04:20 43.89221 -95.51911 25541 ft 357 kts 259°
2026-04-11 04:20 43.88605 -95.55231 25105 ft 353 kts 259°
2026-04-11 04:21 43.87994 -95.58522 24666 ft 350 kts 258°
2026-04-11 04:21 43.87389 -95.61777 24241 ft 347 kts 258°
2026-04-11 04:21 43.86786 -95.65004 23787 ft 344 kts 258°
2026-04-11 04:21 43.86195 -95.68158 23351 ft 340 kts 258°
2026-04-11 04:22 43.85599 -95.71315 22932 ft 335 kts 258°
2026-04-11 04:22 43.85014 -95.74406 22538 ft 329 kts 258°
2026-04-11 04:22 43.84438 -95.77455 22140 ft 325 kts 258°
2026-04-11 04:22 43.83871 -95.80462 21746 ft 320 kts 258°
2026-04-11 04:23 43.83308 -95.83433 21342 ft 317 kts 258°
2026-04-11 04:23 43.82750 -95.86380 20944 ft 315 kts 258°
2026-04-11 04:23 43.82197 -95.89298 20541 ft 313 kts 258°
2026-04-11 04:23 43.81649 -95.92172 20142 ft 311 kts 258°
2026-04-11 04:24 43.81097 -95.95061 19736 ft 310 kts 257°
2026-04-11 04:24 43.80549 -95.97938 19325 ft 308 kts 257°
2026-04-11 04:24 43.80003 -96.00800 18922 ft 307 kts 257°
2026-04-11 04:24 43.79459 -96.03652 18496 ft 305 kts 257°
2026-04-11 04:25 43.78920 -96.06483 17970 ft 305 kts 257°
2026-04-11 04:25 43.78370 -96.09367 17336 ft 310 kts 257°
2026-04-11 04:25 43.77821 -96.12243 16905 ft 308 kts 257°
2026-04-11 04:25 43.77570 -96.15190 16081 ft 310 kts 269°
2026-04-11 04:26 43.77538 -96.18172 15272 ft 310 kts 269°
2026-04-11 04:26 43.77505 -96.21155 14480 ft 310 kts 269°
2026-04-11 04:26 43.77470 -96.24145 13700 ft 308 kts 269°
2026-04-11 04:26 43.77438 -96.27025 13223 ft 297 kts 269°
2026-04-11 04:27 43.77407 -96.29827 12817 ft 285 kts 269°
2026-04-11 04:27 43.77373 -96.32544 12421 ft 280 kts 269°
2026-04-11 04:27 43.77339 -96.35232 12027 ft 278 kts 269°
2026-04-11 04:27 43.77306 -96.37902 11640 ft 277 kts 269°
2026-04-11 04:28 43.77276 -96.40569 11233 ft 276 kts 268°
2026-04-11 04:28 43.77245 -96.43224 10831 ft 276 kts 268°
2026-04-11 04:28 43.77213 -96.45844 10437 ft 275 kts 268°
2026-04-11 04:28 43.77179 -96.48451 10252 ft 267 kts 268°
2026-04-11 04:29 43.77143 -96.51022 10186 ft 267 kts 268°
2026-04-11 04:29 43.77109 -96.53564 10082 ft 260 kts 268°
2026-04-11 04:29 43.77078 -96.56011 9917 ft 250 kts 268°
2026-04-11 04:29 43.77045 -96.58431 9493 ft 251 kts 268°
2026-04-11 04:30 43.77009 -96.60851 9108 ft 251 kts 267°
2026-04-11 04:30 43.76973 -96.63261 8728 ft 250 kts 267°
2026-04-11 04:30 43.76936 -96.65674 8350 ft 250 kts 268°
2026-04-11 04:30 43.76900 -96.68075 7976 ft 250 kts 268°
2026-04-11 04:31 43.76862 -96.70476 7591 ft 249 kts 267°
2026-04-11 04:31 43.76822 -96.72866 7220 ft 249 kts 268°
2026-04-11 04:31 43.76783 -96.75255 6852 ft 249 kts 268°
2026-04-11 04:31 43.76747 -96.77641 6450 ft 248 kts 267°
2026-04-11 04:32 43.76661 -96.80011 6068 ft 245 kts 257°
2026-04-11 04:32 43.75943 -96.82051 5714 ft 239 kts 225°
2026-04-11 04:32 43.74561 -96.83272 5344 ft 233 kts 194°
2026-04-11 04:32 43.72989 -96.83341 4940 ft 231 kts 165°
2026-04-11 04:33 43.71510 -96.82494 4530 ft 227 kts 154°
2026-04-11 04:33 43.70109 -96.81582 4157 ft 217 kts 155°
2026-04-11 04:33 43.68811 -96.80737 4154 ft 197 kts 155°
2026-04-11 04:33 43.67600 -96.79950 3887 ft 190 kts 155°
2026-04-11 04:34 43.66411 -96.79178 3413 ft 190 kts 154°
2026-04-11 04:34 43.65264 -96.78436 2997 ft 169 kts 155°
2026-04-11 04:34 43.64286 -96.77808 2693 ft 143 kts 155°
2026-04-11 04:34 43.63713 -96.77439 2530 ft 133 kts 154°
2026-04-11 04:35 43.62895 -96.76914 2320 ft 127 kts 154°
2026-04-11 04:35 43.62106 -96.76409 2133 ft 124 kts 154°
2026-04-11 04:35 43.61069 -96.75754 1870 ft 123 kts 153°
2026-04-11 04:35 43.60554 -96.75402 1753 ft 122 kts 154°
2026-04-11 04:36 43.59784 -96.74911 1577 ft 121 kts 155°
2026-04-11 04:36 43.59027 -96.74420 1437 ft 114 kts 156°
2026-04-11 04:36 43.58487 -96.74076 1430 ft 45 kts 156°
2026-04-11 04:36 43.58419 -96.73970 1430 ft 12 kts 54°
2026-04-11 04:37 43.58435 -96.73877 1430 ft 11 kts 131°
2026-04-11 04:37 43.58366 -96.73835 1430 ft 11 kts 156°
2026-04-11 04:37 43.58291 -96.73786 1430 ft 13 kts 154°
2026-04-11 04:37 43.58209 -96.73732 1430 ft 14 kts 154°
2026-04-11 04:38 43.58119 -96.73673 1430 ft 15 kts 154°
2026-04-11 04:38 43.58055 -96.73584 1430 ft 14 kts 68°
2026-04-11 04:38 43.58070 -96.73454 1430 ft 14 kts 104°
2026-04-11 04:38 43.58060 -96.73416 1430 ft 0 kts 112°